Regional Weather Roundup
Issued by NWS

Home | Current Version | Previous Version | Graphics & Text | Print | Product List | Glossary On
Versions: 1 2 3 4 5 6 7 8 9 10 11 12 13 14 15 16 17 18 19 20 21 22 23 24 25 26 27 28 29 30 31 32 33 34 35 36 37 38 39 40 41 42 43 44 45 46 47 48 49 50
000
ASUS43 KLOT 282212
RWRIL

ILLINOIS REGIONAL WEATHER ROUNDUP
NATIONAL WEATHER SERVICE CHICAGO/ROMEOVILLE IL
500 PM CDT THU MAY 28 2015

NOTE: "FAIR" INDICATES FEW OR NO CLOUDS BELOW 12,000 FEET WITH NO
SIGNIFICANT WEATHER AND/OR OBSTRUCTIONS TO VISIBILITY.

* THESE STATIONS ARE NOT UNDER NWS QUALITY CONTROL. THEY ALSO MAY NOT
  REPORT WEATHER SUCH AS PRECIPITATION OR FOG.

ILZ001-002-007-009-015-016-024-282300-
NORTHWEST ILLINOIS

CITY           SKY/WX    TMP DP  RH WIND       PRES   REMARKS
MOLINE         SUNNY     82  50  32 S10       30.05F HX  81
STERLING*      MOSUNNY   82  54  36 SE9G29    30.08F HX  81
SAVANNA*       PTSUNNY   84  48  28 SE15G21   30.07F HX  82
$$

ILZ003-004-008-010-011-017-018-282300-
NORTH CENTRAL ILLINOIS

CITY           SKY/WX    TMP DP  RH WIND       PRES   REMARKS
ROCKFORD       PTSUNNY   80  52  37 S13       30.12F HX  80
FREEPORT*        N/A    N/A N/A N/A S13       30.12F
ROCHELLE*      MOSUNNY   81  50  33 SE14G21   30.11F HX  80
DE KALB*       MOSUNNY   77  53  43 S12       30.12F
PERU*          PTSUNNY   84  45  25 SE10G21   30.09F HX  82
$$

ILZ005-006-012>014-019>023-282300-
NORTHEAST ILLINOIS

CITY           SKY/WX    TMP DP  RH WIND       PRES   REMARKS
CHICAGO-OHARE  PTSUNNY   81  54  39 SE10      30.12F HX  81
CHICAGO-MIDWAY PTSUNNY   83  53  35 E13       30.12F HX  82
AURORA         MOSUNNY   83  51  33 SE10G21   30.11F HX  81
LANSING*       SUNNY     82  49  32 SE8       30.13F HX  80
JOLIET*        MOSUNNY   84  54  35 S8        30.11F HX  83
WAUKEGAN       SUNNY     74  57  55 E9        30.14F
DUPAGE AIRPORT MOSUNNY   81  53  37 SE10      30.11F HX  80
KANKAKEE*      SUNNY     82  57  42 SE12      30.12F HX  81
WHEELING       MOSUNNY   79  55  43 SE12      30.14F
MORRIS*        MOSUNNY   84  48  28 NE12      30.09F HX  82
ROMEOVILLE*    MOSUNNY   83  50  31 SE10      30.11F HX  82
NORTHERLY ISL    N/A     69  56  62 N6          N/A
$$

LMZ740>746-282300-
SOUTHERN LAKE MICHIGAN

STATION/POSITION SKY/WX   TEMP    WIND        PRES    VSBY  WAVE
                          AIR SEA DIR/SP/G                  HT/PER
                          (F)     (DEG/KT/KT) (MB)    (MI)  (FT/S)
SOUTHERN BUOY              58 39  100/  2/  4 1021.7F         0
HARRISON CRIB              63      10/  3/  4   N/A
BURNHAM HARBOR             69     360/  6/  7   N/A
CALUMET HARBOR             68      30/  7/ 10   N/A
BURNS HARBOR               64      30/ 12/ 15 1021.0F
MICHIGAN CITY              69      10/ 11/ 13   N/A
MICHIGAN CITY 6N           60 56   40/  4/  6   N/A           1
ST. JOSEPH                 62 58   40/  8/ 10   N/A           1
$$

ILZ025>027-034>036-040-047-049-050-058-095>099-282300-
WEST-CENTRAL ILLINOIS

CITY           SKY/WX    TMP DP  RH WIND       PRES   REMARKS
QUINCY         LGT RAIN  71  63  75 W7        30.07S
GALESBURG*     MOSUNNY   80  54  39 SE7G16    30.07F HX  80
MACOMB*        MOSUNNY   81  55  41 S10       30.08F HX  81
JACKSONVILLE*  CLOUDY    83  64  52 S7        30.07S HX  85
PITTSFIELD*    TSTM      73  65  75 S24G31    30.11R
$$

ILZ028>032-037-038-041>044-048-051>054-059>061-282300-
CENTRAL ILLINOIS

CITY           SKY/WX    TMP DP  RH WIND       PRES   REMARKS
PONTIAC        PTSUNNY   86  46  25 SE15      30.10F HX  83
BLOOMINGTON    MOSUNNY   84  57  39 S8        30.10F HX  83
DECATUR        MOSUNNY   84  58  40 SW6       30.08F HX  83
PEORIA         MOSUNNY   85  55  35 S10       30.07F HX  83
LACON*         MOSUNNY   83  51  33 S6        30.07F HX  81
LINCOLN*       SUNNY     85  51  31 S7        30.05S HX  83
SPRINGFIELD    PTSUNNY   85  62  46 S9        30.06F HX  85
TAYLORVILLE    PTSUNNY   82  64  54 SE9       30.07F HX  84
$$

ILZ033-039-045-046-055>057-062-063-282300-
EAST-CENTRAL ILLINOIS

CITY           SKY/WX    TMP DP  RH WIND       PRES   REMARKS
CHAMPAIGN      SUNNY     86  52  30 S7        30.09F HX  84
DANVILLE*      MOSUNNY   84  52  32 SW8       30.09F HX  83
RANTOUL*       SUNNY     86  54  32 SE9       30.10F HX  84
PARIS*         SUNNY     86  58  38 S7        30.10F HX  85
$$

ILZ079-100>102-282300-
SOUTHWEST ILLINOIS

CITY           SKY/WX    TMP DP  RH WIND       PRES   REMARKS
BELLEVILLE     PTSUNNY   79  70  74 E7        30.06F HX  82
CAHOKIA*       PTSUNNY   83  66  56 SE10      30.05F HX  85
SPARTA*        MOSUNNY   80  67  63 S9        30.09S HX  82
$$

ILZ064>066-069>071-074>076-080>082-084>086-088>090-092>094-282300-
SOUTH-CENTRAL ILLINOIS

CITY           SKY/WX    TMP DP  RH WIND       PRES   REMARKS
CARBONDALE     MOSUNNY   82  64  54 S9        30.08F HX  83
CAIRO*         SUNNY     82  64  56 S7        30.09F HX  83
EFFINGHAM*     PTSUNNY   79  61  53 N3        30.11S THUNDER HX  80
MARION         PTSUNNY   82  66  57 MISG      30.10F HX  85
MT. VERNON     MOSUNNY   84  66  54 SW7       30.09F HX  86
CENTRALIA*     MOSUNNY   85  62  46 S8        30.08F HX  86
SALEM*         MOSUNNY   84  64  50 S12       30.09F HX  85
METROPOLIS*    SUNNY     85  64  49 SE5       30.08F HX  86
$$

ILZ067-068-072-073-078-083-087-091-282300-
SOUTHEAST ILLINOIS

CITY           SKY/WX    TMP DP  RH WIND       PRES   REMARKS
LAWRENCEVILLE  MOSUNNY   83  63  50 SE8       30.10F HX  84
FLORA*         MOSUNNY   80  65  60 E5        30.10S HX  82
FAIRFIELD*     MOSUNNY   82  63  52 S8        30.08F HX  83
HARRISBURG*    MOSUNNY   84  64  50 S8        30.10F HX  86
ROBINSON*      MOSUNNY   85  60  42 SE12      30.11S HX  85
CARMI*         MOSUNNY   86  55  35 S6        30.08F HX  84
$$

ABBREVIATIONS USED IN REMARKS
   TC - TEMPERATURE IN CELSIUS
  WCI - WIND CHILL INDEX
   HX - HEAT INDEX
  VSB - VISIBILITY
$$




USA.gov is the U.S. government's official web portal to all federal, state and local government web resources and services.